Regional Weather Roundup
Issued by NWS State College, PA

Home | Current Version | Previous Version | Text Only | Print | Product List | Glossary On
Versions: 1 2 3 4 5 6 7 8 9 10 11 12 13 14 15 16 17 18 19 20 21 22 23 24 25 26 27 28 29 30 31 32 33 34 35 36 37 38 39 40 41 42 43 44 45 46 47 48 49 50
000
ASUS41 KCTP 261710
RWRCTP

REGIONAL WEATHER ROUNDUP
NATIONAL WEATHER SERVICE STATE COLLEGE PA
100 PM EDT FRI MAY 26 2017

Note: "fair" indicates few or no clouds below 12,000 feet with no
significant weather and/or obstructions to visibility.

* = STATION THAT DOES NOT REPORT PRECIPITATION /E.G. RAIN...SNOW...ETC/
    THUNDER OR FOG.

PAZ002>004-007>009-013>016-020>023-029>032-261800-
WESTERN PENNSYLVANIA

CITY           SKY/WX    TMP DP  RH WIND       PRES   REMARKS
ERIE           CLOUDY    56  53  90 W12G17    29.82R
MEADVILLE      LGT RAIN  54  53  97 W9        29.83R
FRANKLIN*      CLOUDY    57  52  82 W12G17    29.83R
NEW CASTLE     CLOUDY    62  54  74 W13       29.85S
BEAVER COUNTY  CLOUDY    59  52  77 W9G16     29.86R
BUTLER*        CLOUDY    63  54  72 W14G24    29.84R
PITTSBURGH INT CLOUDY    62  57  83 W17       29.84R
PITTSBURGH     CLOUDY    58  53  84 W9G16     29.84R
INDIANA*       CLOUDY    61  55  82 NW12G20   29.84R
LATROBE        PTSUNNY   59  59 100 W14       29.85R
WASHINGTON CO* CLOUDY    61  52  72 W9G17     29.89R
$$

PAZ004>006-010>012-017>019-024>028-033>037-041-042-045-046-049>053-261800-
CENTRAL PENNSYLVANIA

CITY           SKY/WX    TMP DP  RH WIND       PRES   REMARKS
BRADFORD       CLOUDY    55  53  93 W15G21    29.77R
DUBOIS         CLOUDY    57  51  80 W15G23    29.79R
CLEARFIELD     CLOUDY    63  52  67 W14G21    29.77R
JOHNSTOWN      LGT RAIN  55  54  96 W18G24    29.81R FOG
ALTOONA        CLOUDY    65  55  70 W13       29.79R
STATE COLLEGE  PTSUNNY   64  54  68 NW18      29.75R
WILLIAMSPORT   CLOUDY    66  58  75 NW15      29.67R
SELINSGROVE    CLOUDY    66  55  67 VRB7G24   29.70R
FT INDIANTOWN  MOSUNNY   72  56  57 W6G29     29.68F
CAPITAL CITY   CLOUDY    72  53  51 NW17G26   29.70R
HARRISBURG     CLOUDY    70  56  61 W18G26    29.69R
YORK           CLOUDY    68  58  70 W14G21    29.73R
$$

PAZ038>040-043-044-047-048-054-055-060>062-067>071-261800-
EASTERN PENNSYLVANIA

CITY           SKY/WX    TMP DP  RH WIND       PRES   REMARKS
SCRANTON       CLOUDY    63  54  72 N13       29.66R
MOUNT POCONO   CLOUDY    60  55  83 W10       29.65S
ALLENTOWN      CLOUDY    70  57  63 W14G21    29.65R
QUAKERTOWN*    CLOUDY    68  57  68 W13G21    29.67S
READING        CLOUDY    72  58  61 W16G28    29.66F
LANCASTER      CLOUDY    73  58  59 W23G30    29.68F
COATESVILLE    PTSUNNY   72  57  60 NW15G23   29.70S
POTTSTOWN      PTSUNNY   68  56  65 VRB6      29.68S
BLUE BELL      PTSUNNY   70  55  60 W12G23    29.67S
DOYLESTOWN     CLOUDY    70  58  65 NW10G23   29.64R
WILLOW GROVE   NOT AVBL
NORTH PHILA    CLOUDY    72  57  59 W21       29.66S
PHILADELPHIA   MOSUNNY   74  55  51 W13G25    29.66S
$$



USA.gov is the U.S. government's official web portal to all federal, state and local government web resources and services.